Regional Weather Roundup
Issued by NWS

Home | Current Version | Previous Version | Graphics & Text | Print | Product List | Glossary On
Versions: 1 2 3 4 5 6 7 8 9 10 11 12 13 14 15 16 17 18 19 20 21 22 23 24 25 26 27 28 29 30 31 32 33 34 35 36 37 38 39 40 41 42 43 44 45 46 47 48 49 50
000
ASUS43 KIND 300609
RWRIN

WEATHER ROUNDUP FOR INDIANA
NATIONAL WEATHER SERVICE INDIANAPOLIS IN
200 AM EDT SAT AUG 30 2014

NOTE: "FAIR" INDICATES FEW OR NO CLOUDS BELOW 12,000 FEET WITH NO
SIGNIFICANT WEATHER AND/OR OBSTRUCTIONS TO VISIBILITY.

* - STATION DOES NOT REPORT WEATHER SUCH AS PRECIPITATION OR FOG.

+ - STATION NOT QUALITY CONTROLLED BY THE NATIONAL WEATHER SERVICE.
    USE DATA WITH CAUTION...ESPECIALLY DEWPOINT AND RELATIVE
    HUMIDITY OBSERVATIONS.

INZ001>003-010>013-019-020-300700-
NORTHWEST INDIANA

CITY           SKY/WX    TMP DP  RH WIND       PRES   REMARKS
GARY /AIRPORT/ FAIR      74  69  82 S7        29.89F
KNOX *+        FAIR      71  68  90 S7        29.93F
LA PORTE +     FAIR      69  69 100 S5        29.94F
6HR MIN TEMP:  68; 6HR MAX TEMP:  75; 6HR PCP:  0.09;

MICHIGAN CITY+ FAIR      72  68  88 S6        29.92F
MONTICELLO +   FAIR      73  70  90 S7        29.94F
RENSSELAER +   FAIR      70  70 100 SE7       29.93F FOG
VALPARAISO     FAIR      71  69  93 S8        29.92F
6HR MIN TEMP:  70; 6HR MAX TEMP:  75; 6HR PCP:  0.17;


$$

LMZ046-743>745-300700-
SOUTHERN LAKE MICHIGAN

STATION/POSITION TIME  TEMP WIND        PRES
                       AIR  DIR/SP/G
                 (UTC) (F)  (DEG/KT/KT) (MB)
MICHIGAN CITY    0600   73  140/ 12/ 16   N/A

$$

INZ004-005-014>016-021>024-300700-
NORTH CENTRAL INDIANA

CITY           SKY/WX    TMP DP  RH WIND       PRES   REMARKS
GOSHEN         FAIR      74  67  78 S9        29.96F
6HR MIN TEMP:  72; 6HR MAX TEMP:  79; 6HR PCP:  0.02;

LOGANSPORT +   FAIR      72  66  83 S7        29.96F
PERU/GRISSOM   FAIR      73  73 100 S8        29.97F
6HR MIN TEMP:  72; 6HR MAX TEMP:  78;

ROCHESTER +    FAIR      73  72  94 S6        29.96F
SOUTH BEND     FAIR      73  68  84 S8        29.94F
6HR MIN TEMP:  70; 6HR MAX TEMP:  77; 6HR PCP:  0.13;

WARSAW +       FAIR      73  68  83 S3        29.97S

$$

INZ006>009-017-018-025>027-300700-
NORTHEAST INDIANA

CITY           SKY/WX    TMP DP  RH WIND       PRES   REMARKS
ANGOLA *+      CLEAR     72  63  73 S9        29.99F
AUBURN +       FAIR      72  63  73 SE3       30.00F
FORT WAYNE     FAIR      72  66  81 S12       30.00F
6HR MIN TEMP:  71; 6HR MAX TEMP:  77;

HUNTINGTON +   FAIR      72  67  86 S6        29.99F
6HR MIN TEMP:  72; 6HR MAX TEMP:  77;


$$

INZ028-029-035-036-043>045-051>053-300700-
WEST CENTRAL INDIANA

CITY           SKY/WX    TMP DP  RH WIND       PRES   REMARKS
GREENCASTLE +  FAIR      68  64  88 S3        29.99S
LAFAYETTE      FAIR      73  68  84 S7        29.94F
6HR MIN TEMP:  70; 6HR MAX TEMP:  77; 6HR PCP:  0.04;

TERRE HAUTE    FAIR      73  67  81 S7        29.96F
6HR MIN TEMP:  73; 6HR MAX TEMP:  77;


$$

INZ030>032-037>040-046>048-054>057-064-065-300700-
CENTRAL INDIANA

CITY           SKY/WX    TMP DP  RH WIND       PRES   REMARKS
CP ATTERBURY + FAIR      70  63  78 SE3       30.01F
FRANKFORT +    FAIR      72  72 100 S5        29.98F
INDIANAPOLIS   FAIR      74  63  68 S9        29.98F
6HR MIN TEMP:  73; 6HR MAX TEMP:  82;

-EAGLE CREEK   FAIR      74  63  68 S3        29.99S
6HR MIN TEMP:  74; 6HR MAX TEMP:  83;

KOKOMO *+      FAIR      72  68  88 S9        29.98F
MARION +       FAIR      71  66  83 S6        30.00F
MT COMFORT *+  FAIR      72  70  94 S6        30.01F
SHELBYVILLE    FAIR      73  63  70 S9        30.01S
6HR MIN TEMP:  72; 6HR MAX TEMP:  84;

ZIONSVILLE +   FAIR      74  63  66 S7        30.00F
6HR MIN TEMP:  73; 6HR MAX TEMP:  79;


$$

INZ033-034-041-042-049-050-058-059-300700-
EAST CENTRAL INDIANA

CITY           SKY/WX    TMP DP  RH WIND       PRES   REMARKS
MUNCIE         FAIR      74  65  73 S7        30.01F
6HR MIN TEMP:  74; 6HR MAX TEMP:  78;


$$

INZ060-061-067>069-081>083-085>088-300700-
SOUTHWEST INDIANA

CITY           SKY/WX    TMP DP  RH WIND       PRES   REMARKS
EVANSVILLE     FAIR      77  64  64 S7        29.99S
6HR MIN TEMP:  77; 6HR MAX TEMP:  86;

WASHINGTON +   FAIR      72  68  89 S7        29.98S
6HR MIN TEMP:  72; 6HR MAX TEMP:  82;


$$

INZ062-063-066-070>080-084-089>092-300700-
SOUTH CENTRAL AND SOUTHEAST INDIANA

CITY           SKY/WX    TMP DP  RH WIND       PRES   REMARKS
BLOOMINGTON    FAIR      74  65  73 S8        30.00F
6HR MIN TEMP:  74; 6HR MAX TEMP:  82;


$$



USA.gov is the U.S. government's official web portal to all federal, state and local government web resources and services.